AirNav   Air Wisconsin pilot careers
 
 352 users online  

01UT La Sal Junction Airport
La Sal, Utah, USA

GOING TO LA SAL?


FAA INFORMATION EFFECTIVE 29 MARCH 2018

Location

FAA Identifier: 01UT
Lat/Long: 38-18-29.9500N / 109-23-47.4080W
38-18.499167N / 109-23.790133W
38.3083194 / -109.3965022
(estimated)
Elevation: 6000 ft. / 1829 m (estimated)
Variation: 13E (1985)
From city: 6 miles W of LA SAL, UT
Time zone: UTC -6 (UTC -7 during Standard Time)
Zip code: 84532

Airport Operations

Airport use: Private use. Permission required prior to landing
Activation date: 09/1970
Control tower: no
ARTCC: DENVER CENTER
FSS: CEDAR CITY FLIGHT SERVICE STATION
Attendance: UNATNDD
Wind indicator: yes
Segmented circle: no

Nearby radio navigation aids

VOR radial/distance  VOR name  Freq  Var
OABr133/31.6MOAB VOR/DME109.8015E
DVCr310/37.2DOVE CREEK VORTAC114.6014E

Airport Services

Airframe service: NONE
Powerplant service: NONE

Runway Information

Runway E/W

Dimensions: 3200 x 40 ft. / 975 x 12 m
Surface: dirt, in poor condition
RUNWAY E  RUNWAY W
Traffic pattern: leftleft
Markings: nonenone
Runway end identifier lights: nono
Obstructions: 30 ft. hill, 400 ft. from runway, 100 ft. left of centerline, 13:1 slope to clear18 ft. tree, 100 ft. from runway, 30 ft. right of centerline, 5:1 slope to clear

Airport Ownership and Management from official FAA records

Ownership: Privately-owned
Owner: K MC DOUGALD
BOX 1330, MC DOUGALD OIL CO
MOAB, UT 84532
Phone 801-259-6156
Manager: K MC DOUGALD
BOX 1330, MC DOUGALD OIL CO
MOAB, UT 84532
Phone 801-259-6156

Airport Operational Statistics

Aircraft operations: 100/year *
100% transient general aviation
* for 12-month period ending 31 August 1983

Additional Remarks

LAND EAST TAKEOFF TO WEST DUE TO GRADIENT.
LANDING SURFACE ROUGH, SOFT WHEN WET.
EAST RWY HAS 6 TO 8 INCHES DITCH ON BOTH SIDES FROM DRAINAGE.
EAST RWY HAS 6 INCHES - 8 INCHES DITCH ON BOTH SIDES FROM DRAINAGE.

Instrument Procedures

There are no published instrument procedures at 01UT.

Some nearby airports with instrument procedures:

KCNY - Canyonlands Field Airport (32 nm NW)
KAIB - Hopkins Field Airport (39 nm E)
KBDG - Blanding Municipal Airport (44 nm S)
KGJT - Grand Junction Regional Airport (64 nm NE)
KAJZ - Blake Field Airport (69 nm NE)
 
Loc | Ops | Rwys | IFR | FBO | Links
Com | Nav | Svcs | Stats | Notes

AirNav Hotels Sweepstakes
 
Area around 01UT (La Sal Junction Airport)
 
Road maps at: MapQuest Bing Google
 
Aerial photo
No photo
 
Sectional chart

 
Airport distance calculator
Flying to La Sal Junction Airport? Find the distance to fly.

From to 01UT

Sunrise and sunset
Times for 20-Apr-2018
 Local
(UTC-6)
 Zulu
(UTC)
Morning civil twilight06:0812:08
Sunrise06:3612:36
Sunset19:5701:57
Evening civil twilight20:2502:25

Current date and time
Zulu (UTC)  20-Apr-2018 08:08:09
Local (UTC-6)  20-Apr-2018 02:08:09
 
METAR
KCNY 
32nm NW 
200753Z AUTO 26003KT 10SM SCT110 12/M12 A2970 RMK AO2 SLP016 T01171122
KAIB 
39nm E 
200755Z AUTO 20010KT 10SM OVC080 11/M15 A2987 RMK AO2
KBDG 
44nm S 
200755Z AUTO 20009KT 10SM 08/M13 A2989 RMK AO1 T00791126
TAF
KCNY 
32nm NW 
200540Z 2006/2106 24015KT P6SM FEW120 FM201100 22012KT P6SM FEW090 FEW200 FM202000 27006KT P6SM BKN080 BKN140 FM202100 31010KT P6SM BKN100 FM210300 33006KT P6SM BKN035 BKN070
NOTAMs
Click for the latest NOTAMs
NOTAMs are issued by the DoD/FAA and will open in a separate window not controlled by AirNav.

 

 
 

Would you like to see your business listed on this page?

 If your business provides an interesting product or service to pilots, flight crews, aircraft, or users of the La Sal Junction Airport, you should consider listing it here.  To start the listing process, click on the button below
 
Add a business
 

Other Pages about La Sal Junction Airport

Update a link
 
Copyright © AirNav, LLC. All rights reserved. Privacy Policy  Contact